Location: Cadenet
(43.7345°N, 5.3750°E)
Time: 20:09:46
(UTC+00:00)

GEOS 3 Rocket - Pass Details

Date: 18 February 2020
Orbit: 777 x 842 km, 115.0° (Epoch: 03 April)

Event Time Altitude Azimuth Distance (km) Brightness Sun altitude
Rises 05:27:06 0° 31° (NNE) 3,362 7.2 -12.7°
Reaches altitude 10° 05:29:35 10° 22° (NNE) 2,435 6.3 -12.2°
Maximum altitude 05:34:16 33° 320° (NW) 1,364 4.4 -11.4°
Enters shadow 05:38:30 12° 260° (W) 2,280 5.3 -10.6°
